Regional Weather Roundup
Issued by NWS

Home | Current Version | Previous Version | Graphics & Text | Print | Product List | Glossary Off
Versions: 1 2 3 4 5 6 7 8 9 10 11 12 13 14 15 16 17 18 19 20 21 22 23 24 25 26 27 28 29 30 31 32 33 34 35 36 37 38 39 40 41 42 43 44 45 46 47 48 49 50

000
ASUS43 KTOP 290559
RWRKS

WEATHER ROUNDUP FOR KANSAS
NATIONAL WEATHER SERVICE GOODLAND KS
100 AM CDT WED JUL 29 2015

NOTE:  "FAIR" INDICATES FEW OR NO CLOUDS BELOW 12,000 FEET WITH NO
SIGNIFICANT WEATHER AND/OR OBSTRUCTIONS TO VISIBILITY.

KSZ001>006-013>018-027>032-041>047-290700-
NORTHWEST KANSAS

CITY           SKY/WX    TMP DP  RH WIND       PRES   REMARKS
GOODLAND       PTCLDY    61  51  70 CALM      30.18R
6HR MIN TEMP:  59; 6HR MAX TEMP:  83;

HAYS           PTCLDY    72  55  56 NE7       30.08R
HILL CITY      CLEAR     62  59  90 N8        30.10R
6HR MIN TEMP:  61; 6HR MAX TEMP:  85;

RUSSELL        CLOUDY    74  60  61 NE12      30.05R
6HR MIN TEMP:  74; 6HR MAX TEMP:  87;

$$

KSZ061>065-074>080-084>089-290700-
SOUTHWEST KANSAS

CITY           SKY/WX    TMP DP  RH WIND       PRES   REMARKS
DODGE CITY     CLOUDY    72  59  63 NE12      30.08R
6HR MIN TEMP:  72; 6HR MAX TEMP:  86;

ELKHART          N/A     66  60  81 SE14        N/A
GARDEN CITY    CLOUDY    70  56  61 NE13      30.11R
6HR MIN TEMP:  70; 6HR MAX TEMP:  83;

GREAT BEND     CLOUDY    75  59  57 NE14G20   30.04R
LIBERAL        CLOUDY    75  61  60 N12       30.11R
$$

KSZ066>073-081>083-090>101-290700-
SOUTHEAST KANSAS

CITY           SKY/WX    TMP DP  RH WIND       PRES   REMARKS
CHANUTE        CLEAR     76  72  87 S6        29.97S
6HR MIN TEMP:  75; 6HR MAX TEMP:  91;

COFFEYVILLE    CLEAR     76  73  91 S3        29.97R
6HR MIN TEMP:  76; 6HR MAX TEMP:  92;

HUTCHINSON     PTCLDY    80  72  76 NE9       29.99S
6HR MIN TEMP:  80; 6HR MAX TEMP: 100;

MEDICINE LODGE   N/A     82  68  62 S8        29.98R
NEWTON         CLEAR     82  66  57 CALM      30.02R
PARSONS        CLEAR     75  73  93 CALM      29.98S
6HR MIN TEMP:  74; 6HR MAX TEMP:  90;

WICHITA INTL   PTCLDY    80  68  66 S7        29.97R
6HR MIN TEMP:  80; 6HR MAX TEMP:  96;

WICHITA JABRA  CLEAR     82  67  60 S6        29.98R
6HR MIN TEMP:  82; 6HR MAX TEMP:  95;

WINFIELD       CLEAR     79  70  74 S9        29.98R
6HR MIN TEMP:  79; 6HR MAX TEMP:  93;

$$

KSZ007>012-019>026-033>040-048>060-102>105-290700-
NORTHEAST KANSAS

CITY           SKY/WX    TMP DP  RH WIND       PRES   REMARKS
CONCORDIA      MOCLDY    73  62  68 E8        30.07R
6HR MIN TEMP:  73; 6HR MAX TEMP:  83;

EMPORIA        MOCLDY    79  72  79 W3        29.99R
6HR MIN TEMP:  79; 6HR MAX TEMP:  94;

LAWRENCE       CLOUDY    83  73  72 NW6       29.96R
6HR MIN TEMP:  81; 6HR MAX TEMP:  93;

MANHATTAN      CLOUDY    77  66  68 NE22G35   30.00R
6HR MIN TEMP:  77; 6HR MAX TEMP:  96;

OLATHE IND     PTCLDY    82  73  74 SW8       29.98R
6HR MIN TEMP:  81; 6HR MAX TEMP:  92;

OLATHE EXE     CLEAR     81  72  74 SW6       29.97R
6HR MIN TEMP:  79; 6HR MAX TEMP:  90;

SALINA         MOCLDY    78  63  59 N13       30.03R
6HR MIN TEMP:  78; 6HR MAX TEMP: 100;

TOPEKA BILLARD CLOUDY    81  76  84 N16       29.98R
6HR MIN TEMP:  81; 6HR MAX TEMP:  94;

TOPEKA FORBES  CLOUDY    84  74  71 W6        29.97R
6HR MIN TEMP:  84; 6HR MAX TEMP:  95;

$$



USA.gov is the U.S. government's official web portal to all federal, state and local government web resources and services.